Station Historical Data
Daily Summary for September 24, 2017 Units:  English    Metric   Both
Next Day »
Daily Weekly Monthly Yearly Custom
  High: Low: Average:
Temperature: 71.2 °F 52.2 °F 60.5 °F
Dew Point: 38.8 °F 29.5 °F 33.4 °F
Humidity: 45% 24% 37%
Wind Speed: 14.0mph 0.0mph 1.8mph
Wind Gust: 20.0mph - -
Wind- - SSE
Pressure: 29.99 in 29.94 in -
Precipitation: 0.00 in    
Historical Graphs
 
 
Tabular Data for September 24, 2017
Time Temperature Dew Point Pressure Wind Wind Speed Wind Gust Humidity Rainfall Rate (Hourly) solar Conditions
00:02 56.3 °F 30.4 °F 29.94 in ESE 12.0 mph 12.0 mph 37% 0.00 in 0.00 W/m2
00:07 56.3 °F 30.4 °F 29.94 in Calm   9.0 mph 37% 0.00 in 0.00 W/m2
00:12 56.3 °F 30.4 °F 29.94 in East 14.0 mph 14.0 mph 37% 0.00 in 0.00 W/m2
00:17 56.2 °F 30.3 °F 29.94 in Calm   6.0 mph 37% 0.00 in 0.00 W/m2
00:22 56.2 °F 31.0 °F 29.94 in Calm   11.0 mph 38% 0.00 in 0.00 W/m2
00:27 56.2 °F 31.0 °F 29.94 in East 8.0 mph 13.0 mph 38% 0.00 in 0.00 W/m2
00:33 56.2 °F 31.0 °F 29.94 in Calm   9.0 mph 38% 0.00 in 0.00 W/m2
00:38 56.1 °F 30.9 °F 29.94 in Calm   7.0 mph 38% 0.00 in 0.00 W/m2
00:43 56.0 °F 30.8 °F 29.94 in Calm   13.0 mph 38% 0.00 in 0.00 W/m2
00:48 56.0 °F 30.8 °F 29.94 in Calm   8.0 mph 38% 0.00 in 0.00 W/m2
00:53 56.0 °F 30.8 °F 29.94 in East 2.0 mph 5.0 mph 38% 0.00 in 0.00 W/m2
00:58 55.9 °F 30.7 °F 29.94 in Calm   11.0 mph 38% 0.00 in 0.00 W/m2
01:03 55.9 °F 31.3 °F 29.94 in Calm   7.0 mph 39% 0.00 in 0.00 W/m2
01:08 55.8 °F 31.9 °F 29.94 in Calm   7.0 mph 40% 0.00 in 0.00 W/m2
01:13 55.7 °F 31.1 °F 29.94 in Calm   6.0 mph 39% 0.00 in 0.00 W/m2
01:18 55.5 °F 31.6 °F 29.95 in ENE 5.0 mph 5.0 mph 40% 0.00 in 0.00 W/m2
01:23 55.1 °F 31.2 °F 29.95 in Calm     40% 0.00 in 0.00 W/m2
01:28 54.9 °F 30.4 °F 29.95 in Calm     39% 0.00 in 0.00 W/m2
01:33 54.7 °F 30.9 °F 29.95 in Calm     40% 0.00 in 0.00 W/m2
01:38 54.4 °F 31.2 °F 29.95 in Calm     41% 0.00 in 0.00 W/m2
01:43 54.3 °F 31.1 °F 29.95 in Calm   4.0 mph 41% 0.00 in 0.00 W/m2
01:48 54.2 °F 31.0 °F 29.96 in Calm     41% 0.00 in 0.00 W/m2
01:53 54.1 °F 30.3 °F 29.96 in Calm   4.0 mph 40% 0.00 in 0.00 W/m2
01:58 54.0 °F 30.9 °F 29.96 in Calm     41% 0.00 in 0.00 W/m2
02:03 54.0 °F 30.9 °F 29.96 in Calm   4.0 mph 41% 0.00 in 0.00 W/m2
02:08 53.9 °F 30.8 °F 29.95 in NE 4.0 mph 7.0 mph 41% 0.00 in 0.00 W/m2
02:13 53.9 °F 30.8 °F 29.95 in Calm   7.0 mph 41% 0.00 in 0.00 W/m2
02:14 53.9 °F 30.8 °F 29.95 in NE 2.0 mph 7.0 mph 41% 0.00 in 0.00 W/m2
02:19 53.9 °F 30.8 °F 29.95 in Calm   7.0 mph 41% 0.00 in 0.00 W/m2
02:24 53.8 °F 30.7 °F 29.95 in NE 3.0 mph 5.0 mph 41% 0.00 in 0.00 W/m2
02:29 53.7 °F 30.6 °F 29.95 in Calm   5.0 mph 41% 0.00 in 0.00 W/m2
02:34 53.7 °F 30.6 °F 29.95 in NE 2.0 mph 6.0 mph 41% 0.00 in 0.00 W/m2
02:39 53.7 °F 30.6 °F 29.95 in Calm   5.0 mph 41% 0.00 in 0.00 W/m2
02:45 53.6 °F 30.5 °F 29.95 in Calm     41% 0.00 in 0.00 W/m2
02:50 53.6 °F 30.5 °F 29.95 in Calm     41% 0.00 in 0.00 W/m2
02:55 53.6 °F 30.5 °F 29.95 in Calm     41% 0.00 in 0.00 W/m2
03:00 53.5 °F 30.4 °F 29.94 in Calm   2.0 mph 41% 0.00 in 0.00 W/m2
03:05 53.5 °F 30.4 °F 29.94 in Calm   3.0 mph 41% 0.00 in 0.00 W/m2
03:10 53.4 °F 30.3 °F 29.94 in Calm   5.0 mph 41% 0.00 in 0.00 W/m2
03:15 53.3 °F 30.2 °F 29.94 in Calm   5.0 mph 41% 0.00 in 0.00 W/m2
03:20 53.2 °F 30.7 °F 29.94 in NE 3.0 mph 4.0 mph 42% 0.00 in 0.00 W/m2
03:25 53.1 °F 30.6 °F 29.94 in Calm   4.0 mph 42% 0.00 in 0.00 W/m2
03:30 53.0 °F 30.0 °F 29.94 in Calm     41% 0.00 in 0.00 W/m2
03:35 52.8 °F 29.8 °F 29.94 in Calm   3.0 mph 41% 0.00 in 0.00 W/m2
03:40 52.7 °F 30.3 °F 29.94 in Calm   7.0 mph 42% 0.00 in 0.00 W/m2
03:45 52.6 °F 30.8 °F 29.94 in Calm   6.0 mph 43% 0.00 in 0.00 W/m2
03:50 52.5 °F 30.7 °F 29.94 in Calm   6.0 mph 43% 0.00 in 0.00 W/m2
03:55 52.4 °F 30.6 °F 29.94 in East 1.0 mph 14.0 mph 43% 0.00 in 0.00 W/m2
04:00 52.3 °F 30.5 °F 29.94 in Calm   8.0 mph 43% 0.00 in 0.00 W/m2
04:05 52.2 °F 31.0 °F 29.94 in Calm   12.0 mph 44% 0.00 in 0.00 W/m2
04:10 52.2 °F 30.4 °F 29.94 in Calm   8.0 mph 43% 0.00 in 0.00 W/m2
04:15 52.2 °F 30.4 °F 29.94 in Calm   9.0 mph 43% 0.00 in 0.00 W/m2
04:20 52.2 °F 30.4 °F 29.94 in Calm   9.0 mph 43% 0.00 in 0.00 W/m2
04:25 52.2 °F 30.4 °F 29.94 in Calm   8.0 mph 43% 0.00 in 0.00 W/m2
04:30 52.2 °F 30.4 °F 29.94 in East 1.0 mph 7.0 mph 43% 0.00 in 0.00 W/m2
04:35 52.3 °F 30.5 °F 29.94 in ESE 6.0 mph 13.0 mph 43% 0.00 in 0.00 W/m2
04:40 52.3 °F 30.5 °F 29.94 in Calm   9.0 mph 43% 0.00 in 0.00 W/m2
04:45 52.3 °F 30.5 °F 29.94 in ESE 2.0 mph 13.0 mph 43% 0.00 in 0.00 W/m2
04:50 52.4 °F 30.6 °F 29.94 in East 5.0 mph 14.0 mph 43% 0.00 in 0.00 W/m2
04:51 52.4 °F 30.6 °F 29.94 in East 12.0 mph 12.0 mph 43% 0.00 in 0.00 W/m2
04:56 52.4 °F 30.6 °F 29.94 in Calm     43% 0.00 in 0.00 W/m2
05:01 52.5 °F 30.7 °F 29.94 in Calm   1.0 mph 43% 0.00 in 0.00 W/m2
05:06 52.6 °F 30.2 °F 29.94 in Calm   7.0 mph 42% 0.00 in 0.00 W/m2
05:11 52.6 °F 30.2 °F 29.94 in Calm     42% 0.00 in 0.00 W/m2
05:16 52.7 °F 30.3 °F 29.94 in Calm   8.0 mph 42% 0.00 in 0.00 W/m2
05:21 52.8 °F 30.4 °F 29.94 in East 8.0 mph 8.0 mph 42% 0.00 in 0.00 W/m2
05:26 52.8 °F 30.4 °F 29.94 in Calm   9.0 mph 42% 0.00 in 0.00 W/m2
05:31 52.9 °F 30.5 °F 29.94 in Calm   11.0 mph 42% 0.00 in 0.00 W/m2
05:36 53.0 °F 30.5 °F 29.94 in East 8.0 mph 10.0 mph 42% 0.00 in 0.00 W/m2
05:41 53.0 °F 30.0 °F 29.94 in Calm   5.0 mph 41% 0.00 in 0.00 W/m2
05:46 53.1 °F 30.6 °F 29.94 in ESE 2.0 mph 4.0 mph 42% 0.00 in 0.00 W/m2
05:51 53.2 °F 30.1 °F 29.94 in ESE 4.0 mph 5.0 mph 41% 0.00 in 0.00 W/m2
05:56 53.2 °F 30.1 °F 29.94 in Calm   6.0 mph 41% 0.00 in 0.00 W/m2
06:01 53.2 °F 30.1 °F 29.95 in East 7.0 mph 11.0 mph 41% 0.00 in 0.00 W/m2
06:06 53.3 °F 30.8 °F 29.94 in East 2.0 mph 8.0 mph 42% 0.00 in 0.00 W/m2
06:11 53.3 °F 30.2 °F 29.95 in East 1.0 mph 4.0 mph 41% 0.00 in 0.00 W/m2
06:16 53.2 °F 30.1 °F 29.95 in Calm   1.0 mph 41% 0.00 in 0.00 W/m2
06:21 53.2 °F 30.1 °F 29.95 in Calm   6.0 mph 41% 0.00 in 0.00 W/m2
06:26 53.2 °F 29.5 °F 29.95 in ESE 9.0 mph 9.0 mph 40% 0.00 in 0.00 W/m2
06:31 53.3 °F 30.2 °F 29.95 in Calm   8.0 mph 41% 0.00 in 0.00 W/m2
06:36 53.2 °F 30.1 °F 29.95 in ESE 5.0 mph 9.0 mph 41% 0.00 in 0.00 W/m2
06:41 53.2 °F 30.1 °F 29.95 in Calm   6.0 mph 41% 0.00 in 0.00 W/m2
06:46 53.2 °F 30.1 °F 29.95 in ESE 5.0 mph 12.0 mph 41% 0.00 in 0.00 W/m2
06:51 53.2 °F 30.1 °F 29.96 in Calm   5.0 mph 41% 0.00 in 5.00 W/m2
06:56 53.1 °F 30.0 °F 29.96 in East 6.0 mph 10.0 mph 41% 0.00 in 7.00 W/m2
06:58 53.1 °F 30.6 °F 29.96 in East 1.0 mph 12.0 mph 42% 0.00 in 9.00 W/m2
07:03 53.1 °F 30.0 °F 29.96 in Calm   8.0 mph 41% 0.00 in 11.00 W/m2
07:08 53.1 °F 30.0 °F 29.96 in ESE 8.0 mph 9.0 mph 41% 0.00 in 12.00 W/m2
07:13 53.1 °F 30.0 °F 29.96 in East 1.0 mph 8.0 mph 41% 0.00 in 16.00 W/m2
07:18 53.2 °F 30.1 °F 29.97 in East 5.0 mph 12.0 mph 41% 0.00 in 21.00 W/m2
07:23 53.3 °F 30.2 °F 29.97 in ESE 9.0 mph 11.0 mph 41% 0.00 in 32.00 W/m2
07:28 53.3 °F 30.2 °F 29.97 in ESE 7.0 mph 15.0 mph 41% 0.00 in 44.00 W/m2
07:33 53.4 °F 29.7 °F 29.97 in Calm   8.0 mph 40% 0.00 in 62.00 W/m2
07:38 53.5 °F 29.8 °F 29.97 in East 2.0 mph 12.0 mph 40% 0.00 in 76.00 W/m2
07:43 53.6 °F 29.9 °F 29.97 in East 4.0 mph 7.0 mph 40% 0.00 in 90.00 W/m2
07:48 53.7 °F 30.6 °F 29.97 in Calm   9.0 mph 41% 0.00 in 109.00 W/m2
07:53 53.8 °F 31.3 °F 29.97 in East 11.0 mph 18.0 mph 42% 0.00 in 125.00 W/m2
07:58 53.9 °F 30.8 °F 29.97 in Calm   9.0 mph 41% 0.00 in 146.00 W/m2
08:03 53.9 °F 30.8 °F 29.97 in East 5.0 mph 11.0 mph 41% 0.00 in 163.00 W/m2
08:08 54.0 °F 31.5 °F 29.98 in Calm   9.0 mph 42% 0.00 in 188.00 W/m2
08:13 54.1 °F 31.5 °F 29.98 in Calm   16.0 mph 42% 0.00 in 211.00 W/m2
08:18 54.2 °F 31.6 °F 29.98 in Calm   13.0 mph 42% 0.00 in 230.00 W/m2
08:23 54.4 °F 31.2 °F 29.98 in Calm   12.0 mph 41% 0.00 in 251.00 W/m2
08:28 54.6 °F 32.0 °F 29.98 in ESE 9.0 mph 13.0 mph 42% 0.00 in 274.00 W/m2
08:33 54.8 °F 32.2 °F 29.98 in Calm   8.0 mph 42% 0.00 in 288.00 W/m2
08:38 55.0 °F 32.3 °F 29.98 in Calm   11.0 mph 42% 0.00 in 309.00 W/m2
08:43 55.2 °F 32.5 °F 29.98 in East 5.0 mph 10.0 mph 42% 0.00 in 325.00 W/m2
08:48 55.4 °F 32.7 °F 29.98 in ESE 2.0 mph 11.0 mph 42% 0.00 in 336.00 W/m2
08:53 55.7 °F 33.0 °F 29.99 in Calm   10.0 mph 42% 0.00 in 359.00 W/m2
08:58 56.0 °F 32.7 °F 29.98 in Calm   9.0 mph 41% 0.00 in 373.00 W/m2
09:03 56.4 °F 33.0 °F 29.99 in Calm   12.0 mph 41% 0.00 in 390.00 W/m2
09:08 56.7 °F 33.3 °F 29.98 in Calm   11.0 mph 41% 0.00 in 406.00 W/m2
09:13 57.0 °F 33.5 °F 29.99 in ESE 4.0 mph 12.0 mph 41% 0.00 in 418.00 W/m2
09:18 57.4 °F 32.7 °F 29.98 in East 5.0 mph 15.0 mph 39% 0.00 in 434.00 W/m2
09:23 57.7 °F 32.9 °F 29.98 in Calm   7.0 mph 39% 0.00 in 450.00 W/m2
09:28 58.1 °F 33.3 °F 29.98 in Calm   9.0 mph 39% 0.00 in 466.00 W/m2
09:33 58.6 °F 34.4 °F 29.98 in Calm   12.0 mph 40% 0.00 in 476.00 W/m2
09:38 59.1 °F 32.9 °F 29.98 in Calm   7.0 mph 37% 0.00 in 492.00 W/m2
09:43 59.5 °F 33.2 °F 29.99 in ESE 7.0 mph 11.0 mph 37% 0.00 in 510.00 W/m2
09:48 59.9 °F 32.9 °F 29.99 in Calm   20.0 mph 36% 0.00 in 524.00 W/m2
09:53 60.2 °F 32.5 °F 29.98 in ESE 4.0 mph 13.0 mph 35% 0.00 in 534.00 W/m2
09:59 60.5 °F 32.7 °F 29.99 in Calm   9.0 mph 35% 0.00 in 547.00 W/m2
10:04 61.1 °F 32.5 °F 29.98 in Calm   11.0 mph 34% 0.00 in 559.00 W/m2
10:09 61.3 °F 32.7 °F 29.99 in East 9.0 mph 12.0 mph 34% 0.00 in 568.00 W/m2
10:14 61.6 °F 32.2 °F 29.99 in Calm   6.0 mph 33% 0.00 in 585.00 W/m2
10:19 62.2 °F 32.0 °F 29.99 in Calm   10.0 mph 32% 0.00 in 598.00 W/m2
10:24 62.6 °F 32.3 °F 29.99 in East 2.0 mph 8.0 mph 32% 0.00 in 608.00 W/m2
10:29 62.9 °F 33.4 °F 29.99 in East 8.0 mph 11.0 mph 33% 0.00 in 621.00 W/m2
10:34 63.2 °F 32.9 °F 29.99 in ESE 6.0 mph 9.0 mph 32% 0.00 in 633.00 W/m2
10:39 63.5 °F 32.3 °F 29.99 in East 6.0 mph 13.0 mph 31% 0.00 in 643.00 W/m2
10:44 63.8 °F 31.8 °F 29.99 in East 6.0 mph 13.0 mph 30% 0.00 in 650.00 W/m2
10:49 64.1 °F 32.1 °F 29.99 in East 1.0 mph 8.0 mph 30% 0.00 in 663.00 W/m2
10:54 64.5 °F 32.4 °F 29.99 in ESE 9.0 mph 12.0 mph 30% 0.00 in 668.00 W/m2
10:59 64.7 °F 31.7 °F 29.99 in East 6.0 mph 9.0 mph 29% 0.00 in 682.00 W/m2
11:04 65.1 °F 32.1 °F 29.99 in Calm   1.0 mph 29% 0.00 in 691.00 W/m2
11:09 65.5 °F 31.6 °F 29.99 in ENE 3.0 mph 12.0 mph 28% 0.00 in 700.00 W/m2
11:14 65.7 °F 30.8 °F 29.99 in Calm   6.0 mph 27% 0.00 in 708.00 W/m2
11:19 66.1 °F 30.2 °F 29.99 in East 3.0 mph 13.0 mph 26% 0.00 in 714.00 W/m2
11:24 66.3 °F 29.5 °F 29.99 in Calm   2.0 mph 25% 0.00 in 722.00 W/m2
11:29 66.4 °F 29.5 °F 29.99 in East 2.0 mph 8.0 mph 25% 0.00 in 729.00 W/m2
11:34 66.7 °F 30.8 °F 29.99 in East 4.0 mph 8.0 mph 26% 0.00 in 737.00 W/m2
11:39 67.1 °F 30.1 °F 29.99 in SE 4.0 mph 7.0 mph 25% 0.00 in 740.00 W/m2
11:44 67.5 °F 30.5 °F 29.99 in Calm   7.0 mph 25% 0.00 in 745.00 W/m2
11:49 68.0 °F 31.9 °F 29.99 in Calm   1.0 mph 26% 0.00 in 751.00 W/m2
11:54 68.5 °F 31.3 °F 29.98 in Calm   6.0 mph 25% 0.00 in 759.00 W/m2
11:59 69.0 °F 31.8 °F 29.98 in SSE 6.0 mph 10.0 mph 25% 0.00 in 759.00 W/m2
12:04 69.4 °F 32.1 °F 29.98 in Calm   5.0 mph 25% 0.00 in 766.00 W/m2
12:09 69.9 °F 32.5 °F 29.98 in South 1.0 mph 6.0 mph 25% 0.00 in 768.00 W/m2
12:14 70.0 °F 32.6 °F 29.98 in SE 2.0 mph 2.0 mph 25% 0.00 in 773.00 W/m2
12:19 70.1 °F 31.7 °F 29.98 in Calm   2.0 mph 24% 0.00 in 779.00 W/m2
12:24 70.2 °F 32.8 °F 29.98 in Calm   4.0 mph 25% 0.00 in 779.00 W/m2
12:29 70.2 °F 31.8 °F 29.98 in Calm     24% 0.00 in 780.00 W/m2
12:34 70.1 °F 32.7 °F 29.98 in WNW 1.0 mph 3.0 mph 25% 0.00 in 788.00 W/m2
12:39 69.9 °F 31.5 °F 29.98 in WNW 2.0 mph 3.0 mph 24% 0.00 in 786.00 W/m2
12:44 69.9 °F 31.5 °F 29.98 in Calm   2.0 mph 24% 0.00 in 780.00 W/m2
12:49 69.9 °F 32.5 °F 29.97 in Calm   6.0 mph 25% 0.00 in 779.00 W/m2
12:54 70.2 °F 33.7 °F 29.97 in Calm   3.0 mph 26% 0.00 in 786.00 W/m2
12:59 70.5 °F 33.0 °F 29.97 in NW 6.0 mph 8.0 mph 25% 0.00 in 780.00 W/m2
13:04 70.7 °F 32.2 °F 29.97 in Calm   6.0 mph 24% 0.00 in 786.00 W/m2
13:09 70.8 °F 33.3 °F 29.97 in Calm   5.0 mph 25% 0.00 in 780.00 W/m2
13:10 70.8 °F 33.3 °F 29.97 in Calm   5.0 mph 25% 0.00 in 780.00 W/m2
13:15 71.0 °F 34.4 °F 29.97 in West 5.0 mph 9.0 mph 26% 0.00 in 780.00 W/m2
13:20 71.2 °F 35.5 °F 29.97 in Calm   10.0 mph 27% 0.00 in 775.00 W/m2
13:25 71.2 °F 35.5 °F 29.96 in Calm   9.0 mph 27% 0.00 in 707.00 W/m2
13:26 71.2 °F 35.5 °F 29.96 in WNW 8.0 mph 11.0 mph 27% 0.00 in 752.00 W/m2
13:31 71.1 °F 35.5 °F 29.97 in WSW 11.0 mph 11.0 mph 27% 0.00 in 765.00 W/m2
13:36 71.0 °F 36.3 °F 29.96 in West 6.0 mph 12.0 mph 28% 0.00 in 770.00 W/m2
13:41 70.6 °F 35.9 °F 29.97 in West 1.0 mph 2.0 mph 28% 0.00 in 773.00 W/m2
13:46 70.2 °F 34.7 °F 29.97 in West 9.0 mph 9.0 mph 27% 0.00 in 768.00 W/m2
13:51 69.7 °F 35.2 °F 29.97 in Calm   1.0 mph 28% 0.00 in 752.00 W/m2
13:56 69.6 °F 35.1 °F 29.97 in NW 1.0 mph 2.0 mph 28% 0.00 in 715.00 W/m2
14:01 69.5 °F 35.0 °F 29.97 in WNW 1.0 mph 3.0 mph 28% 0.00 in 754.00 W/m2
14:06 69.4 °F 34.0 °F 29.96 in SW 9.0 mph 10.0 mph 27% 0.00 in 747.00 W/m2
14:11 69.5 °F 35.0 °F 29.96 in West 3.0 mph 6.0 mph 28% 0.00 in 708.00 W/m2
14:12 69.5 °F 35.0 °F 29.96 in NW 2.0 mph 11.0 mph 28% 0.00 in 696.00 W/m2
14:17 69.7 °F 34.3 °F 29.96 in Calm   12.0 mph 27% 0.00 in 703.00 W/m2
14:22 69.7 °F 35.2 °F 29.96 in Calm   12.0 mph 28% 0.00 in 656.00 W/m2
14:27 69.8 °F 35.3 °F 29.96 in Calm   10.0 mph 28% 0.00 in 657.00 W/m2
14:32 69.8 °F 35.3 °F 29.96 in WSW 3.0 mph 3.0 mph 28% 0.00 in 664.00 W/m2
14:37 69.8 °F 34.3 °F 29.96 in Calm   8.0 mph 27% 0.00 in 719.00 W/m2
14:42 69.8 °F 34.3 °F 29.96 in Calm   3.0 mph 27% 0.00 in 705.00 W/m2
14:47 69.8 °F 34.3 °F 29.95 in Calm   1.0 mph 27% 0.00 in 675.00 W/m2
14:52 69.8 °F 34.3 °F 29.95 in Calm   1.0 mph 27% 0.00 in 717.00 W/m2
14:57 69.9 °F 34.4 °F 29.95 in Calm   2.0 mph 27% 0.00 in 671.00 W/m2
15:02 70.0 °F 34.5 °F 29.95 in West 10.0 mph 10.0 mph 27% 0.00 in 638.00 W/m2
15:07 70.0 °F 34.5 °F 29.95 in WNW 12.0 mph 12.0 mph 27% 0.00 in 673.00 W/m2
15:12 70.2 °F 34.7 °F 29.95 in NW 2.0 mph 7.0 mph 27% 0.00 in 642.00 W/m2
15:17 70.3 °F 34.8 °F 29.95 in West 8.0 mph 11.0 mph 27% 0.00 in 573.00 W/m2
15:22 70.4 °F 35.8 °F 29.95 in WSW 1.0 mph 6.0 mph 28% 0.00 in 557.00 W/m2
15:27 70.4 °F 34.9 °F 29.95 in Calm   2.0 mph 27% 0.00 in 366.00 W/m2
15:32 70.2 °F 34.7 °F 29.95 in WNW 1.0 mph 3.0 mph 27% 0.00 in 485.00 W/m2
15:37 70.2 °F 35.6 °F 29.95 in Calm   4.0 mph 28% 0.00 in 418.00 W/m2
15:42 70.2 °F 34.7 °F 29.95 in West 6.0 mph 10.0 mph 27% 0.00 in 369.00 W/m2
15:47 69.8 °F 35.3 °F 29.95 in WNW 7.0 mph 10.0 mph 28% 0.00 in 635.00 W/m2
15:48 69.8 °F 34.3 °F 29.95 in Calm   13.0 mph 27% 0.00 in 599.00 W/m2
15:53 69.7 °F 35.2 °F 29.95 in WNW 6.0 mph 20.0 mph 28% 0.00 in 504.00 W/m2
15:58 69.4 °F 35.8 °F 29.95 in WNW 4.0 mph 13.0 mph 29% 0.00 in 466.00 W/m2
16:03 69.3 °F 35.7 °F 29.95 in West 13.0 mph 14.0 mph 29% 0.00 in 438.00 W/m2
16:08 69.1 °F 36.4 °F 29.95 in West 1.0 mph 5.0 mph 30% 0.00 in 492.00 W/m2
16:13 68.9 °F 36.2 °F 29.95 in Calm   11.0 mph 30% 0.00 in 452.00 W/m2
16:18 68.8 °F 37.0 °F 29.95 in West 2.0 mph 13.0 mph 31% 0.00 in 538.00 W/m2
16:23 68.9 °F 37.0 °F 29.95 in Calm     31% 0.00 in 515.00 W/m2
16:28 69.1 °F 36.4 °F 29.95 in Calm   7.0 mph 30% 0.00 in 476.00 W/m2
16:33 69.2 °F 36.5 °F 29.95 in Calm   3.0 mph 30% 0.00 in 452.00 W/m2
16:39 69.4 °F 36.7 °F 29.95 in Calm   4.0 mph 30% 0.00 in 443.00 W/m2
16:44 69.5 °F 36.7 °F 29.95 in WNW 1.0 mph 4.0 mph 30% 0.00 in 429.00 W/m2
16:49 69.5 °F 36.7 °F 29.95 in Calm   5.0 mph 30% 0.00 in 413.00 W/m2
16:54 69.5 °F 36.7 °F 29.95 in NW 1.0 mph 5.0 mph 30% 0.00 in 381.00 W/m2
16:59 69.5 °F 36.7 °F 29.95 in WNW 1.0 mph 6.0 mph 30% 0.00 in 348.00 W/m2
17:04 69.4 °F 36.7 °F 29.95 in WNW 1.0 mph 4.0 mph 30% 0.00 in 329.00 W/m2
17:09 69.3 °F 37.4 °F 29.95 in WNW 1.0 mph 10.0 mph 31% 0.00 in 308.00 W/m2
17:14 69.1 °F 36.4 °F 29.95 in Calm   1.0 mph 30% 0.00 in 294.00 W/m2
17:19 69.0 °F 37.1 °F 29.95 in Calm   7.0 mph 31% 0.00 in 287.00 W/m2
17:24 68.9 °F 37.0 °F 29.95 in WNW 1.0 mph 4.0 mph 31% 0.00 in 264.00 W/m2
17:29 68.8 °F 37.0 °F 29.95 in Calm   4.0 mph 31% 0.00 in 243.00 W/m2
17:34 68.7 °F 37.7 °F 29.95 in Calm   8.0 mph 32% 0.00 in 225.00 W/m2
17:39 68.5 °F 36.7 °F 29.96 in Calm   4.0 mph 31% 0.00 in 167.00 W/m2
17:44 68.4 °F 36.6 °F 29.96 in Calm   5.0 mph 31% 0.00 in 109.00 W/m2
17:49 68.3 °F 36.5 °F 29.96 in WNW 4.0 mph 4.0 mph 31% 0.00 in 98.00 W/m2
17:59 67.8 °F 36.9 °F 29.96 in Calm   2.0 mph 32% 0.00 in 97.00 W/m2
18:04 67.6 °F 36.7 °F 29.96 in Calm   4.0 mph 32% 0.00 in 63.00 W/m2
18:09 67.5 °F 36.6 °F 29.96 in Calm     32% 0.00 in 47.00 W/m2
18:14 67.2 °F 37.9 °F 29.96 in Calm   3.0 mph 34% 0.00 in 46.00 W/m2
18:19 67.0 °F 37.0 °F 29.96 in Calm   2.0 mph 33% 0.00 in 39.00 W/m2
18:24 66.7 °F 37.5 °F 29.96 in Calm   2.0 mph 34% 0.00 in 26.00 W/m2
18:29 66.5 °F 38.8 °F 29.96 in Calm     36% 0.00 in 19.00 W/m2
18:34 65.9 °F 38.2 °F 29.96 in Calm   2.0 mph 36% 0.00 in 16.00 W/m2
18:39 65.3 °F 38.4 °F 29.96 in Calm   1.0 mph 37% 0.00 in 12.00 W/m2
18:44 64.8 °F 37.9 °F 29.96 in Calm     37% 0.00 in 11.00 W/m2
18:49 64.5 °F 38.3 °F 29.96 in Calm     38% 0.00 in 7.00 W/m2
18:54 64.3 °F 37.5 °F 29.96 in Calm     37% 0.00 in 5.00 W/m2
18:59 64.1 °F 37.3 °F 29.96 in Calm     37% 0.00 in 0.00 W/m2
19:04 63.9 °F 37.8 °F 29.96 in Calm     38% 0.00 in 0.00 W/m2
19:14 62.9 °F 37.6 °F 29.96 in Calm     39% 0.00 in 0.00 W/m2
19:19 62.2 °F 37.6 °F 29.96 in Calm     40% 0.00 in 0.00 W/m2
19:24 61.6 °F 37.1 °F 29.96 in Calm     40% 0.00 in 0.00 W/m2
19:29 60.9 °F 36.4 °F 29.96 in Calm     40% 0.00 in 0.00 W/m2
19:35 60.4 °F 36.6 °F 29.96 in Calm     41% 0.00 in 0.00 W/m2
19:40 60.0 °F 36.2 °F 29.96 in Calm     41% 0.00 in 0.00 W/m2
19:45 59.8 °F 36.1 °F 29.97 in Calm   1.0 mph 41% 0.00 in 0.00 W/m2
19:50 59.7 °F 36.6 °F 29.97 in Calm     42% 0.00 in 0.00 W/m2
19:55 59.8 °F 36.7 °F 29.97 in Calm     42% 0.00 in 0.00 W/m2
20:00 59.7 °F 36.6 °F 29.97 in Calm     42% 0.00 in 0.00 W/m2
20:05 59.7 °F 36.6 °F 29.97 in Calm     42% 0.00 in 0.00 W/m2
20:10 59.6 °F 36.5 °F 29.97 in Calm     42% 0.00 in 0.00 W/m2
20:21 59.0 °F 36.0 °F 29.97 in Calm     42% 0.00 in 0.00 W/m2
20:22 58.9 °F 35.9 °F 29.98 in Calm     42% 0.00 in 0.00 W/m2
20:25 58.8 °F 35.8 °F 29.98 in Calm     42% 0.00 in 0.00 W/m2
20:28 58.7 °F 36.3 °F 29.98 in Calm     43% 0.00 in 0.00 W/m2
20:31 58.6 °F 36.2 °F 29.98 in Calm     43% 0.00 in 0.00 W/m2
20:36 58.6 °F 36.2 °F 29.98 in Calm     43% 0.00 in 0.00 W/m2
20:41 58.5 °F 36.1 °F 29.98 in Calm     43% 0.00 in 0.00 W/m2
20:46 58.3 °F 35.9 °F 29.98 in Calm     43% 0.00 in 0.00 W/m2
20:51 58.1 °F 35.7 °F 29.98 in Calm     43% 0.00 in 0.00 W/m2
21:01 58.0 °F 35.7 °F 29.98 in Calm     43% 0.00 in 0.00 W/m2
21:06 58.0 °F 35.7 °F 29.98 in WNW 2.0 mph 2.0 mph 43% 0.00 in 0.00 W/m2
21:11 58.0 °F 35.7 °F 29.98 in Calm   3.0 mph 43% 0.00 in 0.00 W/m2
21:16 58.0 °F 35.7 °F 29.98 in Calm   6.0 mph 43% 0.00 in 0.00 W/m2
21:21 58.0 °F 36.2 °F 29.98 in ESE 6.0 mph 6.0 mph 44% 0.00 in 0.00 W/m2
21:26 58.0 °F 36.2 °F 29.97 in East 2.0 mph 12.0 mph 44% 0.00 in 0.00 W/m2
21:31 58.0 °F 36.2 °F 29.97 in Calm   11.0 mph 44% 0.00 in 0.00 W/m2
21:36 58.0 °F 36.2 °F 29.97 in East 4.0 mph 12.0 mph 44% 0.00 in 0.00 W/m2
21:41 58.1 °F 36.3 °F 29.97 in Calm   12.0 mph 44% 0.00 in 0.00 W/m2
21:46 58.1 °F 36.3 °F 29.97 in Calm   9.0 mph 44% 0.00 in 0.00 W/m2
21:51 58.2 °F 37.0 °F 29.97 in Calm     45% 0.00 in 0.00 W/m2
21:56 58.2 °F 37.0 °F 29.97 in East 6.0 mph 9.0 mph 45% 0.00 in 0.00 W/m2
22:01 58.3 °F 37.1 °F 29.97 in ESE 4.0 mph 14.0 mph 45% 0.00 in 0.00 W/m2
22:06 58.3 °F 37.1 °F 29.97 in Calm   13.0 mph 45% 0.00 in 0.00 W/m2
22:11 58.3 °F 36.5 °F 29.97 in Calm   12.0 mph 44% 0.00 in 0.00 W/m2
22:16 58.4 °F 37.2 °F 29.97 in Calm   12.0 mph 45% 0.00 in 0.00 W/m2
22:21 58.4 °F 36.6 °F 29.97 in Calm   7.0 mph 44% 0.00 in 0.00 W/m2
22:26 58.4 °F 37.2 °F 29.97 in East 3.0 mph 3.0 mph 45% 0.00 in 0.00 W/m2
22:31 58.4 °F 36.6 °F 29.97 in Calm   7.0 mph 44% 0.00 in 0.00 W/m2
22:36 58.4 °F 36.6 °F 29.97 in Calm   8.0 mph 44% 0.00 in 0.00 W/m2
22:41 58.4 °F 36.6 °F 29.97 in Calm   6.0 mph 44% 0.00 in 0.00 W/m2
22:46 58.3 °F 36.5 °F 29.97 in East 2.0 mph 7.0 mph 44% 0.00 in 0.00 W/m2
22:51 58.3 °F 36.5 °F 29.96 in Calm   6.0 mph 44% 0.00 in 0.00 W/m2
22:56 58.2 °F 36.4 °F 29.97 in East 4.0 mph 7.0 mph 44% 0.00 in 0.00 W/m2
23:01 58.0 °F 36.2 °F 29.97 in East 7.0 mph 7.0 mph 44% 0.00 in 0.00 W/m2
23:06 57.9 °F 36.1 °F 29.97 in Calm   7.0 mph 44% 0.00 in 0.00 W/m2
23:11 57.8 °F 36.6 °F 29.97 in Calm   6.0 mph 45% 0.00 in 0.00 W/m2
23:16 57.7 °F 36.5 °F 29.97 in Calm   5.0 mph 45% 0.00 in 0.00 W/m2
23:21 57.6 °F 36.4 °F 29.96 in Calm     45% 0.00 in 0.00 W/m2
23:26 57.4 °F 35.7 °F 29.96 in East 5.0 mph 12.0 mph 44% 0.00 in 0.00 W/m2
23:31 57.2 °F 35.5 °F 29.96 in East 6.0 mph 8.0 mph 44% 0.00 in 0.00 W/m2
23:36 57.0 °F 35.9 °F 29.96 in East 7.0 mph 18.0 mph 45% 0.00 in 0.00 W/m2
23:41 56.8 °F 35.1 °F 29.96 in East 5.0 mph 5.0 mph 44% 0.00 in 0.00 W/m2
23:46 56.7 °F 35.6 °F 29.96 in East 5.0 mph 11.0 mph 45% 0.00 in 0.00 W/m2
23:51 56.7 °F 35.0 °F 29.96 in East 8.0 mph 14.0 mph 44% 0.00 in 0.00 W/m2
23:56 56.7 °F 35.0 °F 29.96 in Calm   11.0 mph 44% 0.00 in 0.00 W/m2
Foresthill Weather
 WU-history PHP script courtesy of   Juneau County Weather.
powered by Cumulus v1.9.3 (1059)
Ambient Weather VWS v14.00
Top Contact Website Map Copyright © 2007 - 2018 Foresthillweather.com Never base important decisions on this or any weather information obtained from the Internet